KINEIS-3B

Last updated on Mon Dec 15 2025 00:02:49 GMT+0000 (Coordinated Universal Time)

1 61224U 24172E 25348.29672035 .00002985 00000+0 47893-3 0 9994 2 61224 98.0262 75.4920 0001211 313.1872 46.9234 14.72399369 66149
UTC large
Height (km)
Speed (km/s)
/
Latitude / Longitude
Inclination (degrees)
Orbital Period (minutes)
Azimuth
Elevation
Range (km)
Doppler Factor

Next 0 passes for location: London (51.5072 / 0.1276)

Sorry there are no passes over London.